Location: ???????
(55.3754°N, 39.3545°E)
Time: 21:51:01
(UTC+00:00)

Cosmos 1400 Rocket - Pass Details

Date: 14 April 2026
Orbit: 474 x 505 km, 81.1° (Epoch: 11 May)

Event Time Altitude Azimuth Distance (km) Brightness Sun altitude
Exits shadow 18:18:50 24° 163° (SSE) 1,011 3.7 -14.6°
Maximum altitude 18:20:40 50° 99° (E) 616 2.7 -14.8°
Drops below altitude 10° 18:24:11 10° 23° (NNE) 1,659 5.5 -15.1°
Sets 18:26:20 0° 18° (NNE) 2,546 6.6 -15.3°
